Flag for Mexico Weather past 2 weeks in Veracruz, Veracruz, Mexico

Now
81 °F

Passing clouds.


Feels Like: 85 °F
Forecast: 79 / 87 °F
Wind: 3 mph from Southeast

Location: Gen. Heriberto Jara

Current Time: May 24, 2015 at 4:45:08 AM

Latest Report: May 23, 2015 at 10:45 PM


Visibility: 7 mi

Pressure: 29.97 "Hg

Humidity: 79%

Dew point: 73 °F

Location of VeracruzLocation

Historic Weather in Veracruz — Graph

°F

Veracruz temperature yesterday

Maximum temperature yesterday: 91 °F (at 1:45 PM)
Minimum temperature yesterday: 72 °F (at 6:03 AM)
Average temperature yesterday: 81 °F

Past Weeks' High & Low Weather Summary

 TemperatureHumidityPressure
High93 °F (May 10, 1:43 PM)94% (May 13, 6:48 AM)30.07 "Hg (May 13, 6:48 AM)
Low72 °F (May 23, 6:03 AM)41% (May 22, 12:43 PM)29.72 "Hg (May 20, 6:52 PM)
Average82 °F75%29.89 "Hg
* Reported May 8 10:41 PM — May 23 10:45 PM, Veracruz, Weather by CustomWeather, © 2015

Note: Actual official high and low records may vary slightly from our data, if they occured in-between our weather recording intervals... More about our weather records

Advertising

Veracruz weather history for previous 24 hours

 ConditionsComfort  
Time TempWeatherWind HumidityBarometerVisibility
10:45 PM
Sat, May 23
81 °FPassing clouds.3 mph79%29.97 "Hg7 mi
9:46 PM81 °FPassing clouds.8 mph79%29.84 "Hg7 mi
7:47 PM82 °FScattered clouds.10 mph74%29.91 "Hg5 mi
4:46 PM86 °FScattered clouds.10 mph59%29.90 "Hg5 mi
3:45 PM88 °FScattered clouds.14 mph59%29.87 "Hg6 mi
2:43 PM88 °FScattered clouds.13 mph52%29.95 "Hg6 mi
1:45 PM91 °FScattered clouds.8 mph44%29.98 "Hg6 mi
12:43 PM88 °FScattered clouds.7 mph49%29.94 "Hg6 mi
11:46 AM86 °FPartly sunny.5 mph59%30.04 "Hg7 mi
10:44 AM82 °FScattered clouds.2 mph66%30.06 "Hg6 mi
9:45 AM77 °FBroken clouds.5 mph79%29.99 "Hg6 mi
8:43 AM73 °FBroken clouds.5 mph89%30.07 "Hg6 mi
7:45 AM72 °FPartly cloudy.5 mph94%30.06 "Hg6 mi
6:46 AM72 °FPartly cloudy.3 mph88%29.95 "Hg6 mi
6:03 AM72 °FPartly cloudy.2 mph88%30.02 "Hg7 mi
5:42 AM73 °FThunderstorms. Passing clouds.9 mph83%30.04 "Hg5 mi
Weather by CustomWeather, © 2015

See weather overviewHow to use our weather pages